AEL66Z LBWN-UKLI

Flight info

Callsign AEL66Z
Flight time 1h 5m
Altitude 38000
Route FTS DCT IVF
Aircraft A343/H-SDE2E3FGHIJ4J5M1RWXY/LB1D1

Departure

Time 2026-04-29 09:20
Airport Varna Airport (LBWN)

Arrival

Time 2026-04-29 10:26
Airport Ivano-Frankivsk International Airport (UKLI)
Time Latitude Longitude Altitude Speed Heading
2026-04-29 08:58 43.23492 27.82883 235 ft 0 kts 13°
2026-04-29 09:12 43.23498 27.82885 235 ft 2 kts 12°
2026-04-29 09:12 43.23508 27.82882 240 ft 1 kts 340°
2026-04-29 09:13 43.23510 27.82878 239 ft 1 kts 326°
2026-04-29 09:13 43.23515 27.82870 241 ft 2 kts 312°
2026-04-29 09:13 43.23523 27.82848 240 ft 3 kts 293°
2026-04-29 09:13 43.23522 27.82813 239 ft 4 kts 254°
2026-04-29 09:14 43.23505 27.82773 239 ft 6 kts 236°
2026-04-29 09:14 43.23476 27.82719 237 ft 8 kts 232°
2026-04-29 09:14 43.23446 27.82644 238 ft 10 kts 255°
2026-04-29 09:14 43.23444 27.82543 236 ft 12 kts 270°
2026-04-29 09:15 43.23446 27.82422 235 ft 14 kts 275°
2026-04-29 09:15 43.23457 27.82289 235 ft 14 kts 278°
2026-04-29 09:15 43.23471 27.82153 234 ft 15 kts 278°
2026-04-29 09:15 43.23487 27.81996 231 ft 18 kts 278°
2026-04-29 09:16 43.23504 27.81817 230 ft 20 kts 277°
2026-04-29 09:16 43.23523 27.81621 230 ft 22 kts 277°
2026-04-29 09:16 43.23542 27.81410 229 ft 23 kts 277°
2026-04-29 09:16 43.23560 27.81185 227 ft 24 kts 276°
2026-04-29 09:17 43.23567 27.80995 230 ft 16 kts 253°
2026-04-29 09:17 43.23556 27.80967 227 ft 0 kts 237°
2026-04-29 09:17 43.23555 27.80966 227 ft 1 kts 237°
2026-04-29 09:17 43.23547 27.80953 227 ft 5 kts 230°
2026-04-29 09:18 43.23489 27.80924 227 ft 10 kts 178°
2026-04-29 09:18 43.23419 27.80959 226 ft 13 kts 153°
2026-04-29 09:18 43.23334 27.81059 226 ft 18 kts 121°
2026-04-29 09:18 43.23318 27.81157 226 ft 0 kts 97°
2026-04-29 09:19 43.23318 27.81158 226 ft 0 kts 97°
2026-04-29 09:19 43.23303 27.81311 226 ft 48 kts 97°
2026-04-29 09:19 43.23236 27.82050 234 ft 106 kts 97°
2026-04-29 09:19 43.23129 27.83280 238 ft 152 kts 96°
2026-04-29 09:20 43.23005 27.84845 625 ft 167 kts 96°
2026-04-29 09:20 43.23002 27.86448 1302 ft 171 kts 85°
2026-04-29 09:20 43.23660 27.87953 1689 ft 205 kts 48°
2026-04-29 09:20 43.25024 27.89080 1744 ft 255 kts 25°
2026-04-29 09:21 43.26810 27.89814 2226 ft 280 kts
2026-04-29 09:21 43.28697 27.89202 3310 ft 278 kts 332°
2026-04-29 09:21 43.30394 27.88001 4485 ft 274 kts 333°
2026-04-29 09:21 43.32122 27.86899 5391 ft 273 kts 335°
2026-04-29 09:22 43.33895 27.85928 5868 ft 275 kts 338°
2026-04-29 09:22 43.35692 27.85049 5990 ft 273 kts 339°
2026-04-29 09:22 43.37491 27.84226 6000 ft 273 kts 340°
2026-04-29 09:22 43.39242 27.83259 5996 ft 271 kts 329°
2026-04-29 09:23 43.40699 27.81651 5993 ft 269 kts 309°
2026-04-29 09:23 43.41826 27.79638 6270 ft 265 kts 303°
2026-04-29 09:23 43.42896 27.77569 6916 ft 266 kts 304°
2026-04-29 09:23 43.43962 27.75510 8020 ft 262 kts 304°
2026-04-29 09:24 43.45017 27.73485 9114 ft 261 kts 305°
2026-04-29 09:24 43.46083 27.71444 10040 ft 264 kts 305°
2026-04-29 09:24 43.47181 27.69347 10609 ft 279 kts 305°
2026-04-29 09:24 43.48360 27.67096 10945 ft 300 kts 305°
2026-04-29 09:25 43.49619 27.64691 11263 ft 319 kts 305°
2026-04-29 09:25 43.50956 27.62136 11657 ft 335 kts 305°
2026-04-29 09:25 43.52334 27.59501 12277 ft 343 kts 305°
2026-04-29 09:25 43.53738 27.56813 13051 ft 347 kts 305°
2026-04-29 09:26 43.55155 27.54099 13857 ft 350 kts 305°
2026-04-29 09:26 43.56584 27.51360 14559 ft 354 kts 305°
2026-04-29 09:26 43.58023 27.48596 15341 ft 355 kts 304°
2026-04-29 09:26 43.59464 27.45827 16199 ft 355 kts 304°
2026-04-29 09:27 43.60904 27.43066 17017 ft 355 kts 304°
2026-04-29 09:27 43.62458 27.40409 17825 ft 357 kts 310°
2026-04-29 09:27 43.64268 27.38031 18579 ft 361 kts 317°
2026-04-29 09:27 43.66341 27.36015 19227 ft 368 kts 325°
2026-04-29 09:28 43.68648 27.34422 19826 ft 376 kts 333°
2026-04-29 09:28 43.71202 27.33429 20424 ft 387 kts 345°
2026-04-29 09:28 43.73921 27.33153 21020 ft 398 kts 355°
2026-04-29 09:28 43.76709 27.33586 21616 ft 410 kts
2026-04-29 09:29 43.79468 27.34773 22237 ft 422 kts 16°
2026-04-29 09:29 43.84558 27.39232 23307 ft 440 kts 28°
2026-04-29 09:29 43.87162 27.41419 23797 ft 437 kts 21°
2026-04-29 09:30 43.89891 27.43284 24253 ft 437 kts 18°
2026-04-29 09:30 43.92670 27.44996 24682 ft 438 kts 16°
2026-04-29 09:30 43.95489 27.46646 25096 ft 441 kts 15°
2026-04-29 09:30 43.98331 27.48284 25520 ft 444 kts 15°
2026-04-29 09:31 44.01194 27.49940 25907 ft 447 kts 15°
2026-04-29 09:31 44.04071 27.51623 26309 ft 450 kts 15°
2026-04-29 09:31 44.06957 27.53330 26732 ft 453 kts 15°
2026-04-29 09:31 44.09860 27.55061 27120 ft 455 kts 15°
2026-04-29 09:32 44.12774 27.56807 27517 ft 457 kts 16°
2026-04-29 09:32 44.15671 27.58546 27910 ft 460 kts 15°
2026-04-29 09:32 44.18616 27.60317 28249 ft 463 kts 15°
2026-04-29 09:32 44.21584 27.62103 28601 ft 465 kts 15°
2026-04-29 09:33 44.24560 27.63896 28949 ft 468 kts 15°
2026-04-29 09:33 44.27558 27.65705 29294 ft 470 kts 15°
2026-04-29 09:33 44.30564 27.67521 29630 ft 473 kts 15°
2026-04-29 09:33 44.33595 27.69334 30031 ft 472 kts 14°
2026-04-29 09:34 44.36684 27.70582 30600 ft 454 kts
2026-04-29 09:34 44.39775 27.70926 31041 ft 440 kts 350°
2026-04-29 09:34 44.42759 27.70318 31367 ft 427 kts 338°
2026-04-29 09:34 44.45537 27.68962 31706 ft 422 kts 332°
2026-04-29 09:35 44.48238 27.67394 32125 ft 418 kts 330°
2026-04-29 09:35 44.50886 27.65745 32573 ft 415 kts 329°
2026-04-29 09:35 44.53506 27.64071 32977 ft 413 kts 329°
2026-04-29 09:35 44.56116 27.62399 33390 ft 412 kts 328°
2026-04-29 09:36 44.58725 27.60738 33727 ft 412 kts 328°
2026-04-29 09:36 44.61332 27.59091 34056 ft 411 kts 328°
2026-04-29 09:36 44.63944 27.57453 34343 ft 411 kts 328°
2026-04-29 09:36 44.66563 27.55815 34557 ft 413 kts 328°
2026-04-29 09:37 44.69191 27.54174 34728 ft 414 kts 328°
2026-04-29 09:37 44.71826 27.52529 34930 ft 415 kts 329°
2026-04-29 09:37 44.74477 27.50872 35131 ft 417 kts 329°
2026-04-29 09:37 44.77129 27.49215 35333 ft 418 kts 329°
2026-04-29 09:38 44.79790 27.47548 35525 ft 419 kts 329°
2026-04-29 09:38 44.82457 27.45877 35714 ft 421 kts 329°
2026-04-29 09:38 44.85148 27.44186 35815 ft 425 kts 329°
2026-04-29 09:38 44.87846 27.42490 36036 ft 425 kts 329°
2026-04-29 09:39 44.90550 27.40790 36234 ft 426 kts 329°
2026-04-29 09:39 44.93260 27.39084 36425 ft 427 kts 329°
2026-04-29 09:39 44.95976 27.37373 36616 ft 428 kts 330°
2026-04-29 09:39 44.98698 27.35656 36801 ft 429 kts 330°
2026-04-29 09:40 45.01429 27.33931 37003 ft 430 kts 330°
2026-04-29 09:40 45.04159 27.32205 37189 ft 431 kts 330°
2026-04-29 09:40 45.06904 27.30467 37429 ft 432 kts 331°
2026-04-29 09:40 45.09650 27.28726 37562 ft 434 kts 331°
2026-04-29 09:41 45.12407 27.26977 37722 ft 435 kts 331°
2026-04-29 09:41 45.15172 27.25221 37923 ft 435 kts 331°
2026-04-29 09:41 45.17933 27.23466 38116 ft 436 kts 331°
2026-04-29 09:41 45.20677 27.21720 38178 ft 439 kts 331°
2026-04-29 09:42 45.26251 27.18167 38187 ft 438 kts 331°
2026-04-29 09:42 45.31786 27.14636 38188 ft 435 kts 331°
2026-04-29 09:43 45.37287 27.11115 38185 ft 432 kts 331°
2026-04-29 09:43 45.42781 27.07589 38187 ft 430 kts 331°
2026-04-29 09:44 45.48230 27.04083 38191 ft 430 kts 331°
2026-04-29 09:44 45.53683 27.00569 38189 ft 430 kts 331°
2026-04-29 09:45 45.59094 26.97076 38189 ft 429 kts 331°
2026-04-29 09:45 45.64572 26.93530 38193 ft 429 kts 331°
2026-04-29 09:46 45.70015 26.90000 38193 ft 430 kts 331°
2026-04-29 09:46 45.75459 26.86462 38191 ft 430 kts 331°
2026-04-29 09:47 45.80902 26.82918 38187 ft 430 kts 331°
2026-04-29 09:47 45.86346 26.79365 38194 ft 430 kts 330°
2026-04-29 09:48 45.91790 26.75804 38185 ft 430 kts 330°
2026-04-29 09:48 45.97237 26.72234 38181 ft 431 kts 330°
2026-04-29 09:49 46.01770 26.69257 38183 ft 431 kts 330°
2026-04-29 09:49 46.07216 26.65674 38187 ft 430 kts 330°
2026-04-29 09:50 46.12662 26.62081 38181 ft 431 kts 330°
2026-04-29 09:50 46.18141 26.58457 38192 ft 435 kts 330°
2026-04-29 09:51 46.23649 26.54806 38172 ft 436 kts 330°
2026-04-29 09:51 46.29161 26.51148 38186 ft 436 kts 330°
2026-04-29 09:52 46.34664 26.47488 38174 ft 435 kts 330°
2026-04-29 09:52 46.40165 26.43821 38188 ft 435 kts 330°
2026-04-29 09:53 46.45680 26.40139 38178 ft 437 kts 330°
2026-04-29 09:53 46.51269 26.36629 38182 ft 438 kts 332°
2026-04-29 09:54 46.56880 26.33147 38186 ft 438 kts 332°
2026-04-29 09:54 46.62482 26.29640 38188 ft 440 kts 332°
2026-04-29 09:55 46.68112 26.26103 38181 ft 441 kts 332°
2026-04-29 09:55 46.73743 26.22554 38184 ft 441 kts 332°
2026-04-29 09:56 46.79376 26.18995 38182 ft 441 kts 332°
2026-04-29 09:56 46.85004 26.15430 38195 ft 441 kts 332°
2026-04-29 09:57 46.90625 26.11863 37901 ft 439 kts 332°
2026-04-29 09:57 46.93417 26.10088 37685 ft 437 kts 332°
2026-04-29 09:57 46.96208 26.08311 37402 ft 437 kts 332°
2026-04-29 09:58 46.98989 26.06539 37139 ft 436 kts 332°
2026-04-29 09:58 47.01763 26.04768 36892 ft 435 kts 331°
2026-04-29 09:58 47.04537 26.02997 36634 ft 433 kts 331°
2026-04-29 09:58 47.07297 26.01232 36367 ft 432 kts 331°
2026-04-29 09:59 47.10048 25.99470 36129 ft 432 kts 331°
2026-04-29 09:59 47.12793 25.97711 35797 ft 429 kts 331°
2026-04-29 09:59 47.15533 25.95953 35178 ft 429 kts 331°
2026-04-29 09:59 47.18272 25.94192 34553 ft 430 kts 330°
2026-04-29 10:00 47.21025 25.92420 33754 ft 433 kts 330°
2026-04-29 10:00 47.23787 25.90641 32955 ft 434 kts 330°
2026-04-29 10:00 47.26551 25.88859 32221 ft 434 kts 330°
2026-04-29 10:00 47.29316 25.87076 31513 ft 433 kts 330°
2026-04-29 10:01 47.32072 25.85298 30787 ft 432 kts 329°
2026-04-29 10:01 47.34827 25.83516 29994 ft 432 kts 329°
2026-04-29 10:01 47.37573 25.81737 29171 ft 430 kts 329°
2026-04-29 10:01 47.40276 25.79990 28563 ft 414 kts 329°
2026-04-29 10:02 47.42853 25.78332 28029 ft 395 kts 329°
2026-04-29 10:02 47.45320 25.76729 27576 ft 391 kts 329°
2026-04-29 10:02 47.47817 25.75095 27098 ft 396 kts 329°
2026-04-29 10:02 47.50350 25.73434 26525 ft 400 kts 330°
2026-04-29 10:03 47.52890 25.71778 25892 ft 398 kts 330°
2026-04-29 10:03 47.55412 25.70134 25341 ft 394 kts 330°
2026-04-29 10:03 47.57911 25.68504 24805 ft 390 kts 330°
2026-04-29 10:03 47.60415 25.66866 24246 ft 387 kts 330°
2026-04-29 10:04 47.62874 25.65258 23701 ft 384 kts 330°
2026-04-29 10:04 47.65268 25.63690 23122 ft 380 kts 330°
2026-04-29 10:04 47.67671 25.62115 22570 ft 375 kts 330°
2026-04-29 10:04 47.70073 25.60539 22042 ft 371 kts 330°
2026-04-29 10:05 47.72426 25.58991 21538 ft 367 kts 330°
2026-04-29 10:05 47.74752 25.57462 20983 ft 365 kts 330°
2026-04-29 10:05 47.77064 25.55939 20440 ft 361 kts 330°
2026-04-29 10:05 47.79354 25.54430 19929 ft 358 kts 330°
2026-04-29 10:06 47.81624 25.52932 19415 ft 356 kts 330°
2026-04-29 10:06 47.83875 25.51443 18901 ft 354 kts 330°
2026-04-29 10:06 47.86119 25.49959 18371 ft 352 kts 330°
2026-04-29 10:06 47.88353 25.48481 17821 ft 350 kts 330°
2026-04-29 10:07 47.90568 25.47014 17317 ft 347 kts 330°
2026-04-29 10:07 47.92769 25.45556 16809 ft 344 kts 330°
2026-04-29 10:07 47.94948 25.44109 16327 ft 342 kts 330°
2026-04-29 10:07 47.97113 25.42672 15806 ft 340 kts 330°
2026-04-29 10:08 47.99269 25.41239 15308 ft 338 kts 331°
2026-04-29 10:08 48.01410 25.39815 14833 ft 336 kts 330°
2026-04-29 10:08 48.03542 25.38393 14332 ft 335 kts 330°
2026-04-29 10:08 48.05626 25.37007 14042 ft 318 kts 330°
2026-04-29 10:09 48.07584 25.35713 13673 ft 298 kts 330°
2026-04-29 10:09 48.09427 25.34490 13371 ft 281 kts 330°
2026-04-29 10:09 48.11160 25.33335 13123 ft 266 kts 330°
2026-04-29 10:09 48.12804 25.32235 12836 ft 253 kts 330°
2026-04-29 10:10 48.14394 25.31166 12429 ft 248 kts 330°
2026-04-29 10:10 48.15957 25.30111 11990 ft 245 kts 330°
2026-04-29 10:10 48.17510 25.29064 11533 ft 244 kts 330°
2026-04-29 10:10 48.19064 25.28017 11165 ft 246 kts 331°
2026-04-29 10:11 48.20626 25.26967 10946 ft 245 kts 331°
2026-04-29 10:11 48.22176 25.25926 10787 ft 243 kts 331°
2026-04-29 10:11 48.23708 25.24899 10584 ft 242 kts 331°
2026-04-29 10:11 48.25252 25.23858 10302 ft 245 kts 331°
2026-04-29 10:12 48.26821 25.22799 9996 ft 249 kts 332°
2026-04-29 10:12 48.28409 25.21728 9646 ft 252 kts 332°
2026-04-29 10:12 48.30014 25.20648 9321 ft 254 kts 333°
2026-04-29 10:12 48.31625 25.19564 8996 ft 253 kts 333°
2026-04-29 10:13 48.33210 25.18497 8672 ft 244 kts 333°
2026-04-29 10:13 48.34737 25.17470 8358 ft 239 kts 333°
2026-04-29 10:13 48.36253 25.16447 8046 ft 238 kts 334°
2026-04-29 10:13 48.37766 25.15426 7745 ft 239 kts 334°
2026-04-29 10:14 48.39288 25.14397 7467 ft 240 kts 334°
2026-04-29 10:14 48.40803 25.13368 7321 ft 236 kts 335°
2026-04-29 10:14 48.42285 25.12362 7169 ft 232 kts 335°
2026-04-29 10:14 48.43749 25.11368 6970 ft 230 kts 335°
2026-04-29 10:15 48.45208 25.10379 6726 ft 230 kts 336°
2026-04-29 10:15 48.46660 25.09396 6545 ft 228 kts 336°
2026-04-29 10:15 48.48106 25.08415 6300 ft 228 kts 336°
2026-04-29 10:15 48.49549 25.07434 6073 ft 227 kts 336°
2026-04-29 10:16 48.50984 25.06456 5862 ft 226 kts 336°
2026-04-29 10:16 48.51931 25.05811 5763 ft 226 kts 336°
2026-04-29 10:16 48.53850 25.04508 5569 ft 226 kts 336°
2026-04-29 10:16 48.55274 25.03538 5467 ft 224 kts 336°
2026-04-29 10:17 48.56693 25.02573 5418 ft 223 kts 336°
2026-04-29 10:17 48.58094 25.01617 5433 ft 219 kts 336°
2026-04-29 10:17 48.59485 25.00666 5514 ft 220 kts 336°
2026-04-29 10:17 48.60882 24.99716 5570 ft 221 kts 336°
2026-04-29 10:18 48.62287 24.98756 5585 ft 221 kts 336°
2026-04-29 10:18 48.63688 24.97796 5588 ft 222 kts 336°
2026-04-29 10:18 48.65093 24.96834 5578 ft 222 kts 336°
2026-04-29 10:18 48.66503 24.95871 5534 ft 221 kts 336°
2026-04-29 10:19 48.67901 24.94916 5575 ft 221 kts 336°
2026-04-29 10:19 48.69301 24.93957 5600 ft 221 kts 336°
2026-04-29 10:19 48.70669 24.93018 5544 ft 212 kts 336°
2026-04-29 10:19 48.71986 24.92112 5465 ft 204 kts 336°
2026-04-29 10:20 48.73260 24.91238 5372 ft 198 kts 336°
2026-04-29 10:20 48.74488 24.90395 5308 ft 190 kts 336°
2026-04-29 10:20 48.75681 24.89573 5158 ft 188 kts 336°
2026-04-29 10:20 48.76879 24.88751 4949 ft 188 kts 336°
2026-04-29 10:21 48.78054 24.87941 4706 ft 183 kts 336°
2026-04-29 10:21 48.79206 24.87147 4444 ft 181 kts 336°
2026-04-29 10:21 48.80346 24.86358 4197 ft 179 kts 337°
2026-04-29 10:21 48.81476 24.85580 3951 ft 178 kts 337°
2026-04-29 10:22 48.82597 24.84809 3681 ft 175 kts 337°
2026-04-29 10:22 48.83693 24.84051 3403 ft 170 kts 336°
2026-04-29 10:22 48.84740 24.83327 3157 ft 161 kts 335°
2026-04-29 10:22 48.85680 24.82540 3015 ft 146 kts 322°
2026-04-29 10:23 48.86252 24.81352 3025 ft 138 kts 292°
2026-04-29 10:23 48.86309 24.79936 3027 ft 136 kts 260°
2026-04-29 10:23 48.85902 24.78621 3031 ft 139 kts 250°
2026-04-29 10:23 48.86001 24.77201 2716 ft 143 kts 298°
2026-04-29 10:24 48.86530 24.75903 2203 ft 145 kts 310°
2026-04-29 10:24 48.87094 24.74639 1756 ft 143 kts 302°
2026-04-29 10:24 48.87526 24.73295 1386 ft 141 kts 292°
2026-04-29 10:24 48.87824 24.71892 1114 ft 135 kts 288°
2026-04-29 10:25 48.88038 24.70550 988 ft 130 kts 288°
2026-04-29 10:25 48.88254 24.69288 925 ft 104 kts 284°
2026-04-29 10:25 48.88399 24.68392 932 ft 73 kts 284°
2026-04-29 10:25 48.88496 24.67795 931 ft 53 kts 283°
2026-04-29 10:26 48.88557 24.67415 935 ft 20 kts 289°
2026-04-29 10:26 48.88651 24.67356 933 ft 16 kts
2026-04-29 10:26 48.88735 24.67319 935 ft 12 kts 292°
2026-04-29 10:26 48.88750 24.67193 933 ft 12 kts 277°
2026-04-29 10:27 48.88773 24.66918 936 ft 14 kts 269°
2026-04-29 10:27 48.88710 24.66830 936 ft 13 kts 185°
2026-04-29 10:27 48.88643 24.66915 937 ft 14 kts 112°
2026-04-29 10:28 48.88614 24.67066 935 ft 16 kts 104°
2026-04-29 10:28 48.88585 24.67245 931 ft 19 kts 104°
2026-04-29 10:28 48.88554 24.67440 932 ft 19 kts 104°
2026-04-29 10:28 48.88519 24.67650 929 ft 21 kts 104°
2026-04-29 10:29 48.88483 24.67873 933 ft 22 kts 103°
2026-04-29 10:29 48.88446 24.68106 932 ft 23 kts 103°
2026-04-29 10:29 48.88422 24.68265 932 ft 24 kts 103°
2026-04-29 10:29 48.88379 24.68524 928 ft 26 kts 105°
2026-04-29 10:30 48.88323 24.68799 927 ft 28 kts 107°
2026-04-29 10:30 48.88274 24.69100 922 ft 30 kts 101°
2026-04-29 10:30 48.88230 24.69409 924 ft 30 kts 104°
2026-04-29 10:30 48.88180 24.69716 926 ft 30 kts 102°
2026-04-29 10:31 48.88138 24.70002 925 ft 20 kts 101°
2026-04-29 10:31 48.88209 24.70159 920 ft 20 kts 38°
2026-04-29 10:31 48.88325 24.70277 918 ft 20 kts 33°
2026-04-29 10:31 48.88451 24.70353 918 ft 19 kts 353°
2026-04-29 10:32 48.88579 24.70299 918 ft 19 kts 342°
2026-04-29 10:32 48.88691 24.70298 919 ft 11 kts 41°
2026-04-29 10:32 48.88710 24.70394 918 ft 10 kts 83°
2026-04-29 10:32 48.88719 24.70507 918 ft 8 kts 77°
2026-04-29 10:33 48.88746 24.70546 918 ft 0 kts 12°
2026-04-29 10:33 48.88747 24.70546 918 ft 0 kts 10°